Weather History for Springfield, MO

Change the Weather History Date:

Friday, November 30, 2012

  Actual Average Record
Temperature  
Mean Temperature 54 °F 39 °F  
Max Temperature 67 °F 50 °F 72 °F (2014)
Min Temperature 41 °F 29 °F 6 °F (1976)
Degree Days  
Heating Degree Days 11 26  
Month to date heating degree days 521 572  
Since 1 July heating degree days 917 879  
Cooling Degree Days 0 0  
Month to date cooling degree days 1 2  
Year to date cooling degree days 1764 1389  
Growing Degree Days 4 (Base 50)    
Moisture  
Dew Point 43 °F    
Average Humidity 67    
Maximum Humidity 83    
Minimum Humidity 50    
Precipitation  
Precipitation 0.00 in 0.13 in 2.83 in (2006)
Month to date precipitation 1.03 4.22  
Year to date precipitation 29.84 42.53  
Snow  
Snow 0.00 in - - ()
Month to date snowfall 0.0  
Since 1 July snowfall 0.0  
Since 1 September snowfall 0.0  
Snow Depth 0.00 in    
Sea Level Pressure  
Sea Level Pressure 30.08 in    
Wind  
Wind Speed 9 mph (South)    
Max Wind Speed 14 mph    
Max Gust Speed 18 mph    
Visibility 10 miles    
Events      
T = Trace of Precipitation, MM = Missing Value Source: NWS Daily Summary

Daily Weather History Graph

Daily Weather History Graph

Search for Another Location

Airport:

Trip Planner

Search our weather history database for the weather conditions in past years. The results will help you decide how hot, cold, wet, or windy it might be!

Date:

Astronomy

Nov. 30, 2012 Rise Set
Actual Time 7:08 AM CST 4:56 PM CST
Civil Twilight 6:39 AM CST 5:25 PM CST
Nautical Twilight 6:07 AM CST 5:57 PM CST
Astronomical Twilight 5:36 AM CST 6:28 PM CST
Moon 6:51 PM CST (11/30) 8:40 AM CST (11/30)
Length of Visible Light 10h 45m
Length of Day
9h 48m
Waning Gibbous, 96% of the Moon is Illuminated
Nov 30
Waning Gibbous
Dec 6
Last Quarter
Dec 13
New
Dec 19
First Quarter
Dec 28
Full

Hourly Weather History & Observations

Time (CST) Temp. Windchill Dew Point Humidity Pressure Visibility Wind Dir Wind Speed Gust Speed Precip Events Conditions
12:52 AM 45.0 °F 38.9 °F 30.9 °F 58% 30.12 in 10.0 mi SSE 12.7 mph - N/A   Clear
1:52 AM 44.1 °F 38.1 °F 30.9 °F 60% 30.12 in 10.0 mi SSE 11.5 mph - N/A   Clear
2:52 AM 45.0 °F 38.9 °F 30.9 °F 58% 30.11 in 10.0 mi SSE 12.7 mph - N/A   Clear
3:52 AM 44.1 °F 37.7 °F 30.9 °F 60% 30.09 in 10.0 mi SSE 12.7 mph - N/A   Clear
4:52 AM 44.1 °F 37.7 °F 32.0 °F 63% 30.09 in 10.0 mi SSE 12.7 mph - N/A   Clear
5:52 AM 44.1 °F 39.0 °F 32.0 °F 63% 30.10 in 10.0 mi South 9.2 mph - N/A   Clear
6:52 AM 43.0 °F 37.7 °F 32.0 °F 65% 30.11 in 10.0 mi SSE 9.2 mph - N/A   Clear
7:52 AM 43.0 °F 38.2 °F 34.0 °F 71% 30.13 in 10.0 mi SSE 8.1 mph - N/A   Clear
8:52 AM 48.0 °F - 36.0 °F 63% 30.13 in 10.0 mi South 9.2 mph - N/A   Clear
9:52 AM 54.0 °F - 39.9 °F 59% 30.13 in 10.0 mi SSW 11.5 mph - N/A   Clear
10:52 AM 60.1 °F - 46.0 °F 60% 30.12 in 10.0 mi SSW 9.2 mph - N/A   Clear
11:52 AM 64.0 °F - 50.0 °F 60% 30.09 in 10.0 mi SW 8.1 mph - N/A   Clear
12:52 PM 64.9 °F - 52.0 °F 63% 30.07 in 10.0 mi SW 6.9 mph - N/A   Clear
1:52 PM 66.0 °F - 52.0 °F 60% 30.06 in 10.0 mi South 8.1 mph - N/A   Clear
2:52 PM 64.9 °F - 52.0 °F 63% 30.05 in 10.0 mi SSW 6.9 mph - N/A   Clear
3:52 PM 64.0 °F - 50.0 °F 60% 30.05 in 10.0 mi South 5.8 mph - N/A   Clear
4:52 PM 60.1 °F - 48.9 °F 67% 30.06 in 10.0 mi SE 3.5 mph - N/A   Clear
5:52 PM 55.9 °F - 48.0 °F 75% 30.06 in 10.0 mi SE 6.9 mph - N/A   Clear
6:52 PM 57.0 °F - 48.9 °F 74% 30.06 in 10.0 mi SSE 6.9 mph - N/A   Clear
7:52 PM 55.0 °F - 48.0 °F 77% 30.06 in 10.0 mi SSE 8.1 mph - N/A   Clear
8:52 PM 55.0 °F - 48.9 °F 80% 30.05 in 10.0 mi SSE 9.2 mph - N/A   Clear
9:52 PM 55.0 °F - 48.9 °F 80% 30.04 in 10.0 mi SSE 12.7 mph - N/A   Clear
10:52 PM 54.0 °F - 48.9 °F 83% 30.05 in 10.0 mi SSE 11.5 mph - N/A   Clear
11:26 PM 53.6 °F - 48.2 °F 82% 30.07 in 10.0 mi South 11.5 mph - N/A   Mostly Cloudy
11:52 PM 55.0 °F - 50.0 °F 83% 30.06 in 10.0 mi South 9.2 mph - N/A   Overcast